{"data":{"norad_id":38250,"epoch":"2026-09-18T01:58:39.513792Z","epoch_age_seconds":223359,"freshness":"STALE","line1":"1 38250U 12018A   26261.08240178 -.00000043  00000+0  00000+0 0  9993","line2":"2 38250  55.6740 301.7369 0023252 273.0823  86.7126  1.86230014 97679","mean_motion":1.86230014,"eccentricity":0.0023252,"inclination_deg":55.674,"raan_deg":301.7369,"arg_perigee_deg":273.0823,"mean_anomaly_deg":86.7126,"bstar":0,"rev_number":9767,"period_min":773.23733649078,"perigee_km":21463.262365179,"apogee_km":21593.037762541,"semimajor_km":27906.28706386,"source":"CELESTRAK","updated_at":"2026-09-20T09:00:46.672237Z"}}